A4066 KDYS-KDYS

Flight info

Callsign A4066
Flight time N/A
Altitude 16500
Route SDR LANCER MOA/D0100
Aircraft B1/H-V/N

Departure

Time 2026-04-15 20:00
Airport Dyess Air Force Base (KDYS)

Arrival

Time N/A
Airport Dyess Air Force Base (KDYS)
Time Latitude Longitude Altitude Speed Heading
2026-04-15 19:42 32.41610 -99.84749 1888 ft 0 kts 258°
2026-04-15 19:51 32.41608 -99.84758 1879 ft 3 kts 258°
2026-04-15 19:51 32.41607 -99.84801 1882 ft 6 kts 291°
2026-04-15 19:51 32.41623 -99.84815 1879 ft 6 kts 336°
2026-04-15 19:52 32.41676 -99.84845 1879 ft 6 kts 298°
2026-04-15 19:52 32.41673 -99.84928 1882 ft 13 kts 259°
2026-04-15 19:52 32.41679 -99.84971 1878 ft 3 kts 328°
2026-04-15 19:52 32.41720 -99.84987 1881 ft 10 kts 348°
2026-04-15 19:53 32.41794 -99.85004 1883 ft 12 kts 349°
2026-04-15 19:53 32.41884 -99.85026 1882 ft 11 kts 349°
2026-04-15 19:53 32.41974 -99.85046 1880 ft 12 kts 348°
2026-04-15 19:53 32.42050 -99.85064 1881 ft 11 kts 349°
2026-04-15 19:54 32.42131 -99.85083 1881 ft 13 kts 348°
2026-04-15 19:54 32.42215 -99.85102 1882 ft 13 kts 348°
2026-04-15 19:54 32.42305 -99.85124 1883 ft 15 kts 349°
2026-04-15 19:54 32.42408 -99.85147 1883 ft 16 kts 348°
2026-04-15 19:55 32.42511 -99.85170 1883 ft 16 kts 348°
2026-04-15 19:55 32.42627 -99.85198 1883 ft 18 kts 348°
2026-04-15 19:55 32.42759 -99.85229 1882 ft 21 kts 348°
2026-04-15 19:55 32.42921 -99.85267 1883 ft 24 kts 349°
2026-04-15 19:56 32.43057 -99.85298 1881 ft 20 kts 348°
2026-04-15 19:56 32.43181 -99.85328 1883 ft 16 kts 340°
2026-04-15 19:56 32.43269 -99.85364 1883 ft 12 kts 348°
2026-04-15 19:56 32.43369 -99.85387 1882 ft 17 kts 349°
2026-04-15 19:57 32.43516 -99.85421 1882 ft 26 kts 349°
2026-04-15 19:57 32.43689 -99.85460 1883 ft 17 kts 347°
2026-04-15 19:57 32.43811 -99.85488 1882 ft 22 kts 351°
2026-04-15 19:57 32.43926 -99.85565 1884 ft 22 kts 290°
2026-04-15 19:58 32.43920 -99.85673 1886 ft 10 kts 257°
2026-04-15 19:58 32.43911 -99.85720 1885 ft 10 kts 258°
2026-04-15 19:58 32.43893 -99.85836 1886 ft 10 kts 259°
2026-04-15 19:58 32.43871 -99.85874 1884 ft 4 kts 199°
2026-04-15 19:59 32.43862 -99.85872 1885 ft 0 kts 165°
2026-04-15 19:59 32.43776 -99.85853 1886 ft 46 kts 169°
2026-04-15 19:59 32.43164 -99.85710 1883 ft 133 kts 168°
2026-04-15 20:00 32.41992 -99.85437 2015 ft 202 kts 172°
2026-04-15 20:00 32.40368 -99.85072 2206 ft 270 kts 172°
2026-04-15 20:00 32.38358 -99.84606 2645 ft 317 kts 168°
2026-04-15 20:00 32.36073 -99.84128 3464 ft 340 kts 183°
2026-04-15 20:01 32.33761 -99.84820 4433 ft 356 kts 203°
2026-04-15 20:01 32.31579 -99.85918 4872 ft 323 kts 206°
2026-04-15 20:01 32.29545 -99.86973 5227 ft 323 kts 206°
2026-04-15 20:01 32.27499 -99.88014 5407 ft 322 kts 206°
2026-04-15 20:02 32.25436 -99.89043 5480 ft 319 kts 206°
2026-04-15 20:02 32.23397 -99.90065 5513 ft 321 kts 206°
2026-04-15 20:02 32.21405 -99.91224 5504 ft 320 kts 220°
2026-04-15 20:02 32.20334 -99.93422 5569 ft 314 kts 265°
2026-04-15 20:03 32.20998 -99.95848 5604 ft 323 kts 311°
2026-04-15 20:03 32.22888 -99.97291 5630 ft 330 kts 333°
2026-04-15 20:03 32.24958 -99.98428 5599 ft 325 kts 334°
2026-04-15 20:03 32.27036 -99.99514 5565 ft 327 kts 335°
2026-04-15 20:04 32.29190 -100.00607 5552 ft 358 kts 335°
2026-04-15 20:04 32.31444 -100.01726 5540 ft 347 kts 335°
2026-04-15 20:04 32.33694 -100.02828 5526 ft 348 kts 335°
2026-04-15 20:04 32.35947 -100.03921 5521 ft 349 kts 335°
2026-04-15 20:05 32.38167 -100.04993 5509 ft 349 kts 336°
2026-04-15 20:05 32.40423 -100.06081 5514 ft 347 kts 336°
2026-04-15 20:05 32.42743 -100.06936 5511 ft 349 kts 343°
2026-04-15 20:05 32.45127 -100.07633 5516 ft 352 kts 345°
2026-04-15 20:06 32.47531 -100.08282 5517 ft 353 kts 345°
2026-04-15 20:06 32.49979 -100.08410 5534 ft 364 kts 13°
2026-04-15 20:06 32.52075 -100.06799 5555 ft 364 kts 46°
2026-04-15 20:06 32.53744 -100.04549 5386 ft 338 kts 49°
2026-04-15 20:07 32.55065 -100.02688 4872 ft 271 kts 50°
2026-04-15 20:07 32.56331 -100.00895 4333 ft 286 kts 51°
2026-04-15 20:07 32.57545 -99.99181 3815 ft 264 kts 52°
2026-04-15 20:07 32.58628 -99.97502 3348 ft 247 kts 65°
2026-04-15 20:08 32.58570 -99.95652 3138 ft 217 kts 123°
2026-04-15 20:08 32.57799 -99.94221 2946 ft 200 kts 128°
2026-04-15 20:08 32.57080 -99.92805 2491 ft 206 kts 125°
2026-04-15 20:08 32.56331 -99.91325 1990 ft 209 kts 132°
2026-04-15 20:09 32.55219 -99.90369 1873 ft 186 kts 155°